Wetbulb
68.61 68.33 68.39 68.40 67.78 66.73 66.72 67.19 68.16 67.70 67.19 66.71 66.59 65.96 66.11 65.19 65.20 65.29 64.44 64.21 64.10 63.19
67.75 68.04 67.26 67.66 67.99 67.00 67.60 67.04 67.05 66.95 66.48 66.56 66.30 65.93 66.14 65.10 65.44 65.38 63.00 64.38 64.93 63.82
67.17 67.31 67.10 67.19 66.81 67.12 67.31 67.02 66.75 66.33 66.10 65.79 65.60 66.27 66.75 65.98 66.13 65.38 62.03 62.47 64.59 64.44
66.18 66.40 66.76 66.64 66.57 66.66 66.74 66.39 65.53 65.26 65.43 65.72 66.22 66.49 66.23 66.06 65.71 62.76 61.60 60.97 63.51 63.78
66.16 66.25 66.20 65.92 66.18 66.11 65.60 65.37 65.31 65.29 65.53 65.55 65.42 65.72 65.26 64.51 62.99 61.24 60.38 59.87 61.30 63.17
65.39 65.77 65.72 65.36 65.35 65.29 64.83 65.28 65.29 65.28 64.72 64.35 65.25 65.27 65.24 62.72 61.47 60.99 61.09 60.84 61.01 63.05
64.81 65.14 65.17 65.10 64.77 64.76 65.03 65.00 64.96 64.72 65.02 65.26 65.36 64.26 64.02 63.49 62.51 61.37 61.40 60.54 62.27 63.24
64.62 65.10 64.79 64.22 64.12 64.44 64.80 64.57 64.53 65.01 64.94 64.62 63.20 61.17 62.00 63.29 62.73 61.37 59.73 61.74 60.52 62.97
64.12 64.30 64.36 64.29 63.88 63.73 63.86 65.44 64.12 64.57 64.00 62.84 62.35 46.84 51.82 59.53 62.10 60.90 60.81 60.91 62.28 61.94
63.93 63.49 63.64 63.24 63.46 63.53 64.29 64.06 62.83 64.29 63.50 62.84 62.88 46.55 48.92 52.91 62.81 62.36 60.96 60.79 59.97 59.82
63.80 63.26 63.10 63.08 63.18 63.95 64.00 63.29 61.85 63.76 63.16 63.50 59.18 47.11 46.75 51.10 62.68 62.11 61.32 60.24 59.82 58.94
63.78 63.08 62.87 62.70 63.60 64.87 64.50 61.76 62.48 63.40 62.78 63.55 60.18 46.20 46.93 56.49 61.86 61.04 59.91 59.71 59.83 58.94
63.64 63.21 62.71 63.35 63.40 64.66 65.45 64.09 63.10 62.27 62.93 55.96 60.46 45.48 47.29 56.41 61.01 59.02 58.00 57.64 57.26 50.90
63.84 63.48 63.84 63.69 63.83 64.29 64.19 63.69 63.04 62.28 63.03 61.52 59.26 55.88 45.29 50.91 60.78 59.04 58.63 57.70 56.28 53.04
MSLP
1000.62 1001.18 1002.00 1002.55 1003.31 1003.77 1004.20 1005.03 1006.03 1006.67 1007.21 1007.68 1008.01 1008.44 1008.77 1008.99 1009.20 1009.52 1009.75 1009.88 1010.02 1009.94
1000.98 1001.63 1002.25 1003.02 1003.66 1004.09 1004.66 1005.37 1006.12 1006.62 1007.10 1007.53 1007.91 1008.28 1008.55 1008.67 1008.91 1009.26 1009.76 1009.74 1009.72 1009.82
1001.37 1001.97 1002.59 1003.24 1003.85 1004.39 1004.98 1005.54 1006.18 1006.72 1007.13 1007.49 1007.76 1007.97 1008.18 1008.33 1008.56 1008.86 1009.43 1009.62 1009.50 1009.59
1001.82 1002.38 1003.02 1003.58 1004.15 1004.69 1005.30 1005.83 1006.23 1006.61 1007.00 1007.19 1007.40 1007.59 1007.82 1008.03 1008.21 1008.71 1009.08 1009.23 1009.30 1009.23
1002.27 1002.84 1003.36 1003.91 1004.47 1005.00 1005.44 1005.85 1006.17 1006.53 1006.70 1006.91 1007.12 1007.34 1007.49 1007.60 1007.99 1008.38 1008.59 1008.90 1009.14 1008.88
1002.71 1003.20 1003.69 1004.18 1004.76 1005.14 1005.56 1005.96 1006.21 1006.40 1006.59 1006.72 1006.91 1007.09 1007.24 1007.65 1007.76 1008.01 1008.41 1008.72 1008.94 1008.65
1003.12 1003.52 1003.91 1004.39 1004.87 1005.31 1005.66 1005.90 1006.14 1006.35 1006.54 1006.76 1006.99 1007.07 1007.15 1007.19 1007.45 1007.85 1008.26 1008.60 1008.62 1008.54
1003.47 1003.78 1004.12 1004.59 1005.02 1005.43 1005.67 1005.85 1005.99 1006.36 1006.66 1006.96 1007.11 1007.41 1007.40 1007.16 1007.42 1007.81 1008.23 1008.53 1008.65 1008.74
1003.55 1003.96 1004.40 1004.80 1005.16 1005.51 1005.70 1005.89 1006.35 1006.57 1006.71 1007.08 1007.34 1007.88 1007.84 1007.48 1007.74 1008.11 1008.39 1008.55 1008.64 1008.95
1003.72 1004.13 1004.55 1004.91 1005.26 1005.60 1005.90 1006.32 1006.71 1006.71 1006.90 1007.29 1007.63 1008.08 1008.14 1007.90 1008.02 1008.17 1008.40 1008.52 1008.87 1009.27
1003.65 1004.15 1004.68 1005.03 1005.39 1005.75 1006.14 1006.54 1006.94 1006.95 1007.18 1007.46 1008.05 1008.27 1008.36 1008.27 1008.20 1008.34 1008.54 1008.78 1009.00 1009.40
1003.60 1004.17 1004.69 1005.09 1005.45 1005.71 1006.18 1006.77 1007.04 1007.11 1007.28 1007.60 1008.24 1008.59 1008.55 1008.41 1008.48 1008.64 1008.83 1009.12 1009.37 1009.55
1003.63 1004.13 1004.63 1005.14 1005.55 1005.78 1006.08 1006.61 1007.00 1007.29 1007.43 1008.20 1008.38 1008.78 1008.80 1008.72 1008.87 1009.02 1009.24 1009.55 1009.86 1010.12
1003.82 1004.26 1004.72 1005.27 1005.61 1005.84 1006.23 1006.72 1007.09 1007.43 1007.72 1008.27 1008.54 1008.92 1009.10 1009.14 1009.19 1009.34 1009.55 1009.92 1010.37 1010.81
Wind_Speed
12 9 10 11 9 8 8 8 10 8 8 6 6 6 6 5 5 6 6 8 7 5
11 12 10 11 10 8 9 8 8 7 6 6 6 7 6 5 6 6 5 6 6 6
11 11 11 10 10 10 9 8 8 7 7 6 6 6 7 6 7 7 3 2 6 7
11 11 11 11 10 9 9 9 9 8 7 6 6 6 6 6 6 6 5 3 8 8
13 12 11 10 9 9 9 9 8 7 6 6 5 4 5 6 5 6 6 5 6 7
11 11 10 10 9 9 10 9 7 6 5 4 4 3 4 5 6 8 8 9 5 5
10 10 9 9 10 9 9 8 6 4 4 4 1 2 4 4 6 6 6 5 7 7
9 9 9 9 9 8 7 6 5 6 5 4 3 4 4 4 5 8 5 4 3 5
9 9 9 9 9 7 6 6 7 7 5 5 3 6 4 3 6 6 5 5 4 6
8 8 9 8 9 8 6 6 6 6 5 4 4 6 2 4 5 5 4 5 6 6
9 9 9 9 8 7 5 6 6 5 5 4 4 3 2 4 6 6 6 5 6 7
9 10 10 9 7 5 8 6 5 5 5 5 4 3 4 5 5 6 6 5 6 7
10 10 9 9 7 4 5 6 5 5 4 6 5 2 3 4 5 5 4 5 6 9
9 9 8 8 6 6 6 7 5 5 5 5 4 3 1 6 5 5 5 5 5 4
Wind_Direction
137 138 146 141 143 146 146 144 150 154 156 162 166 177 187 196 209 202 211 210 214 221
133 141 136 131 137 140 135 138 145 145 152 169 183 192 194 208 213 208 204 225 217 222
130 129 125 128 132 136 130 135 143 151 165 173 186 194 202 213 218 204 173 221 227 215
122 121 127 131 133 133 133 142 150 159 168 179 195 205 205 218 205 171 175 184 245 210
121 125 124 130 132 140 139 142 148 159 169 183 190 202 217 215 162 164 166 209 237 214
121 127 129 131 135 138 137 146 155 166 186 192 208 221 235 219 184 182 189 203 217 206
130 131 131 129 136 140 148 155 163 173 137 146 116 348 318 280 191 167 180 196 203 205
134 134 132 134 139 140 155 165 175 137 140 96 46 24 352 93 134 143 131 170 177 198
141 141 142 143 142 150 153 147 123 138 121 84 46 3 330 103 121 137 155 159 161 132
144 147 144 144 151 157 149 133 131 134 108 89 63 14 83 103 119 133 146 142 127 116
158 150 148 144 144 153 134 129 137 129 111 102 62 26 134 141 118 114 122 128 131 129
154 153 152 151 149 142 135 137 145 135 122 102 96 82 173 148 115 106 104 108 121 126
153 154 156 153 153 149 124 129 142 131 100 81 117 111 167 133 116 98 86 78 101 115
154 156 154 153 156 156 143 141 143 125 107 96 119 135 193 116 120 113 114 108 108 113